(°C)
(°C)
-0°
J
J
J
J
J
J
J
(km/h)
15-25
15-26
15-32
15-29
16-28
16-30
15-26
(mm)
0
0
0
0
0
0
0
(%)
0
0
0
0
0
0
0

Výška Slnka nad obzorom

/ -44.4°
sun-icon
UV 1
07:19
18:04
Dorastajúci polmesiac (120°)
16:53
00:28

Správy METAR pre lokalitu 52.53°S 31.02°V (UMGG)

Čas Podmienky Teplota/
Rosný bod
Vietor Viditeľnosť Počasie Oblaky Tlak Zmeniť Nespracované
VFR 8°C / 2°C 190º 10kt >10km - Clouds and Visibility OK 1018 No Significant change UMGG 152000Z 19005MPS CAVOK 08/02 Q1018 R28/CLRD// NOSIG
VFR 9°C / 2°C 190º 10kt >10km - Clouds and Visibility OK 1018 No Significant change UMGG 151900Z 19005MPS CAVOK 09/02 Q1018 R28/CLRD// NOSIG
VFR 10°C / 3°C 190º 12kt >10km - Clouds and Visibility OK 1018 No Significant change UMGG 151800Z 19006MPS CAVOK 10/03 Q1018 R28/CLRD// NOSIG
VFR 10°C / 3°C 200º 14kt >10km - Broken Clouds 4800ft 1018 No Significant change UMGG 151700Z 20007MPS 9999 BKN048 10/03 Q1018 R28/CLRD// NOSIG
VFR 10°C / 3°C 210º 14kt >10km - Broken Clouds 4600ft 1018 No Significant change UMGG 151630Z 21007MPS 9999 BKN046 10/03 Q1018 R28/CLRD// NOSIG
VFR 10°C / 3°C 210º 14kt >10km - Broken Clouds 4600ft 1018 No Significant change UMGG 151600Z 21007MPS 9999 BKN046 10/03 Q1018 R28/CLRD// NOSIG
VFR 10°C / 2°C 190º 12kt >10km - Broken Clouds 4500ft 1018 No Significant change UMGG 151530Z 19006MPS 9999 BKN045CB 10/02 Q1018 R28/CLRD// NOSIG
VFR 10°C / 2°C 190º 12kt >10km - Broken Clouds 4500ft 1018 No Significant change UMGG 151500Z 19006MPS 9999 BKN045CB 10/02 Q1018 R28/D NOSIG
VFR 12°C / 2°C 190º 12kt >10km - Broken Clouds 4500ft 1018 No Significant change UMGG 151430Z 19006MPS 9999 BKN045CB 12/02 Q1018 R28/D NOSIG
VFR 12°C / 2°C 190º 14kt >10km - Broken Clouds 4100ft 1018 No Significant change UMGG 151400Z 19007MPS 9999 BKN041CB 12/02 Q1018 R28/CLRD// NOSIG
VFR 12°C / 0°C 200º 12kt Gust 17kt >10km - Scattered Clouds 4000ft
Broken Clouds 7000ft
1018 No Significant change UMGG 151330Z 20006G09MPS 9999 SCT040CB BKN070 12/00 Q1018 R28/D NOSIG
VFR 12°C / 0°C 200º 12kt Gust 17kt >10km - Scattered Clouds 4000ft
Broken Clouds 7000ft
1018 No Significant change UMGG 151300Z 20006G09MPS 9999 SCT040CB BKN070 12/00 Q1018 R28/CLRD// NOSIG
VFR 12°C / 0°C 220º 14kt Gust 19kt >10km - Scattered Clouds 4000ft
Broken Clouds 7000ft
1018 No Significant change UMGG 151230Z 22007G10MPS 9999 SCT040CB BKN070 12/00 Q1018 R28/D NOSIG
VFR 12°C / 0°C 220º 14kt Gust 19kt >10km - Scattered Clouds 4000ft
Broken Clouds 7000ft
1018 No Significant change UMGG 151200Z 22007G10MPS 9999 SCT040CB BKN070 12/00 Q1018 R28/D NOSIG
VFR 10°C / 1°C 200º 14kt Gust 19kt >10km - Few Clouds 4500ft
Broken Clouds 7000ft
1019 No Significant change UMGG 151130Z 20007G10MPS 9999 FEW045 BKN070 10/01 Q1019 R28/CLRD// NOSIG
VFR 10°C / 1°C 200º 14kt Gust 23kt >10km - Few Clouds 4500ft
Broken Clouds 7000ft
1019 No Significant change UMGG 151100Z 20007G12MPS 9999 FEW045 BKN070 10/01 Q1019 R28/CLRD// NOSIG
VFR 9°C / 2°C 200º 10kt Gust 16kt >10km - Clouds and Visibility OK 1019 No Significant change UMGG 151030Z 20005G08MPS CAVOK 09/02 Q1019 R28/D NOSIG
VFR 9°C / 2°C 200º 10kt Gust 16kt >10km - Clouds and Visibility OK 1019 No Significant change UMGG 151000Z 20005G08MPS CAVOK 09/02 Q1019 R28/CLRD// NOSIG
VFR 8°C / 3°C 180º 10kt Gust 16kt >10km - Clouds and Visibility OK 1019 No Significant change UMGG 150930Z 18005G08MPS CAVOK 08/03 Q1019 R28/CLRD// NOSIG
VFR 8°C / 3°C 180º 14kt >10km - Clouds and Visibility OK 1019 No Significant change UMGG 150900Z 18007MPS CAVOK 08/03 Q1019 R28/D NOSIG
VFR 7°C / 3°C 180º 12kt 9000m - Few Clouds 4800ft
Broken Clouds 7000ft
1020 No Significant change UMGG 150830Z 18006MPS 9000 FEW048 BKN070 07/03 Q1020 R28/CLRD// NOSIG
MVFR 7°C / 3°C 180º 12kt 8000m - Few Clouds 4800ft
Broken Clouds 7000ft
1020 No Significant change UMGG 150800Z 18006MPS 8000 FEW048 BKN070 07/03 Q1020 R28/D NOSIG
MVFR 7°C / 4°C 190º 10kt 7000m - Few Clouds 4800ft
Broken Clouds 7000ft
1020 No Significant change UMGG 150730Z 19005MPS 7000 FEW048 BKN070 07/04 Q1020 R28/D NOSIG
MVFR 7°C / 4°C 190º 10kt 7000m - Scattered Clouds 4800ft
Broken Clouds 7000ft
1020 No Significant change UMGG 150700Z 19005MPS 7000 SCT048 BKN070 07/04 Q1020 R28/D NOSIG

VFR

8°C / 2°C

[Viac]
Vietor 190º 10kt
Viditeľnosť >10km
Počasie -
Oblaky Clouds and Visibility OK
Tlak 1018
Zmeniť No Significant change
Nespracované UMGG 152000Z 19005MPS CAVOK 08/02 Q1018 R28/CLRD// NOSIG

VFR

9°C / 2°C

[Viac]
Vietor 190º 10kt
Viditeľnosť >10km
Počasie -
Oblaky Clouds and Visibility OK
Tlak 1018
Zmeniť No Significant change
Nespracované UMGG 151900Z 19005MPS CAVOK 09/02 Q1018 R28/CLRD// NOSIG

VFR

10°C / 3°C

[Viac]
Vietor 190º 12kt
Viditeľnosť >10km
Počasie -
Oblaky Clouds and Visibility OK
Tlak 1018
Zmeniť No Significant change
Nespracované UMGG 151800Z 19006MPS CAVOK 10/03 Q1018 R28/CLRD// NOSIG

VFR

10°C / 3°C

[Viac]
Vietor 200º 14kt
Viditeľnosť >10km
Počasie -
Oblaky Broken Clouds 4800ft
Tlak 1018
Zmeniť No Significant change
Nespracované UMGG 151700Z 20007MPS 9999 BKN048 10/03 Q1018 R28/CLRD// NOSIG

VFR

10°C / 3°C

[Viac]
Vietor 210º 14kt
Viditeľnosť >10km
Počasie -
Oblaky Broken Clouds 4600ft
Tlak 1018
Zmeniť No Significant change
Nespracované UMGG 151630Z 21007MPS 9999 BKN046 10/03 Q1018 R28/CLRD// NOSIG

VFR

10°C / 3°C

[Viac]
Vietor 210º 14kt
Viditeľnosť >10km
Počasie -
Oblaky Broken Clouds 4600ft
Tlak 1018
Zmeniť No Significant change
Nespracované UMGG 151600Z 21007MPS 9999 BKN046 10/03 Q1018 R28/CLRD// NOSIG

VFR

10°C / 2°C

[Viac]
Vietor 190º 12kt
Viditeľnosť >10km
Počasie -
Oblaky Broken Clouds 4500ft
Tlak 1018
Zmeniť No Significant change
Nespracované UMGG 151530Z 19006MPS 9999 BKN045CB 10/02 Q1018 R28/CLRD// NOSIG

VFR

10°C / 2°C

[Viac]
Vietor 190º 12kt
Viditeľnosť >10km
Počasie -
Oblaky Broken Clouds 4500ft
Tlak 1018
Zmeniť No Significant change
Nespracované UMGG 151500Z 19006MPS 9999 BKN045CB 10/02 Q1018 R28/D NOSIG

VFR

12°C / 2°C

[Viac]
Vietor 190º 12kt
Viditeľnosť >10km
Počasie -
Oblaky Broken Clouds 4500ft
Tlak 1018
Zmeniť No Significant change
Nespracované UMGG 151430Z 19006MPS 9999 BKN045CB 12/02 Q1018 R28/D NOSIG

VFR

12°C / 2°C

[Viac]
Vietor 190º 14kt
Viditeľnosť >10km
Počasie -
Oblaky Broken Clouds 4100ft
Tlak 1018
Zmeniť No Significant change
Nespracované UMGG 151400Z 19007MPS 9999 BKN041CB 12/02 Q1018 R28/CLRD// NOSIG

VFR

12°C / 0°C

[Viac]
Vietor 200º 12kt Gust 17kt
Viditeľnosť >10km
Počasie -
Oblaky Scattered Clouds 4000ft
Broken Clouds 7000ft
Tlak 1018
Zmeniť No Significant change
Nespracované UMGG 151330Z 20006G09MPS 9999 SCT040CB BKN070 12/00 Q1018 R28/D NOSIG

VFR

12°C / 0°C

[Viac]
Vietor 200º 12kt Gust 17kt
Viditeľnosť >10km
Počasie -
Oblaky Scattered Clouds 4000ft
Broken Clouds 7000ft
Tlak 1018
Zmeniť No Significant change
Nespracované UMGG 151300Z 20006G09MPS 9999 SCT040CB BKN070 12/00 Q1018 R28/CLRD// NOSIG

VFR

12°C / 0°C

[Viac]
Vietor 220º 14kt Gust 19kt
Viditeľnosť >10km
Počasie -
Oblaky Scattered Clouds 4000ft
Broken Clouds 7000ft
Tlak 1018
Zmeniť No Significant change
Nespracované UMGG 151230Z 22007G10MPS 9999 SCT040CB BKN070 12/00 Q1018 R28/D NOSIG

VFR

12°C / 0°C

[Viac]
Vietor 220º 14kt Gust 19kt
Viditeľnosť >10km
Počasie -
Oblaky Scattered Clouds 4000ft
Broken Clouds 7000ft
Tlak 1018
Zmeniť No Significant change
Nespracované UMGG 151200Z 22007G10MPS 9999 SCT040CB BKN070 12/00 Q1018 R28/D NOSIG

VFR

10°C / 1°C

[Viac]
Vietor 200º 14kt Gust 19kt
Viditeľnosť >10km
Počasie -
Oblaky Few Clouds 4500ft
Broken Clouds 7000ft
Tlak 1019
Zmeniť No Significant change
Nespracované UMGG 151130Z 20007G10MPS 9999 FEW045 BKN070 10/01 Q1019 R28/CLRD// NOSIG

VFR

10°C / 1°C

[Viac]
Vietor 200º 14kt Gust 23kt
Viditeľnosť >10km
Počasie -
Oblaky Few Clouds 4500ft
Broken Clouds 7000ft
Tlak 1019
Zmeniť No Significant change
Nespracované UMGG 151100Z 20007G12MPS 9999 FEW045 BKN070 10/01 Q1019 R28/CLRD// NOSIG

VFR

9°C / 2°C

[Viac]
Vietor 200º 10kt Gust 16kt
Viditeľnosť >10km
Počasie -
Oblaky Clouds and Visibility OK
Tlak 1019
Zmeniť No Significant change
Nespracované UMGG 151030Z 20005G08MPS CAVOK 09/02 Q1019 R28/D NOSIG

VFR

9°C / 2°C

[Viac]
Vietor 200º 10kt Gust 16kt
Viditeľnosť >10km
Počasie -
Oblaky Clouds and Visibility OK
Tlak 1019
Zmeniť No Significant change
Nespracované UMGG 151000Z 20005G08MPS CAVOK 09/02 Q1019 R28/CLRD// NOSIG

VFR

8°C / 3°C

[Viac]
Vietor 180º 10kt Gust 16kt
Viditeľnosť >10km
Počasie -
Oblaky Clouds and Visibility OK
Tlak 1019
Zmeniť No Significant change
Nespracované UMGG 150930Z 18005G08MPS CAVOK 08/03 Q1019 R28/CLRD// NOSIG

VFR

8°C / 3°C

[Viac]
Vietor 180º 14kt
Viditeľnosť >10km
Počasie -
Oblaky Clouds and Visibility OK
Tlak 1019
Zmeniť No Significant change
Nespracované UMGG 150900Z 18007MPS CAVOK 08/03 Q1019 R28/D NOSIG

VFR

7°C / 3°C

[Viac]
Vietor 180º 12kt
Viditeľnosť 9000m
Počasie -
Oblaky Few Clouds 4800ft
Broken Clouds 7000ft
Tlak 1020
Zmeniť No Significant change
Nespracované UMGG 150830Z 18006MPS 9000 FEW048 BKN070 07/03 Q1020 R28/CLRD// NOSIG

MVFR

7°C / 3°C

[Viac]
Vietor 180º 12kt
Viditeľnosť 8000m
Počasie -
Oblaky Few Clouds 4800ft
Broken Clouds 7000ft
Tlak 1020
Zmeniť No Significant change
Nespracované UMGG 150800Z 18006MPS 8000 FEW048 BKN070 07/03 Q1020 R28/D NOSIG

MVFR

7°C / 4°C

[Viac]
Vietor 190º 10kt
Viditeľnosť 7000m
Počasie -
Oblaky Few Clouds 4800ft
Broken Clouds 7000ft
Tlak 1020
Zmeniť No Significant change
Nespracované UMGG 150730Z 19005MPS 7000 FEW048 BKN070 07/04 Q1020 R28/D NOSIG

MVFR

7°C / 4°C

[Viac]
Vietor 190º 10kt
Viditeľnosť 7000m
Počasie -
Oblaky Scattered Clouds 4800ft
Broken Clouds 7000ft
Tlak 1020
Zmeniť No Significant change
Nespracované UMGG 150700Z 19005MPS 7000 SCT048 BKN070 07/04 Q1020 R28/D NOSIG

Správy TAF pre lokalitu 52.53°S 31.02°V (UMGG)

From till


From till Wind 180º 12kt. Visibility 10km or more. Broken Clouds 3000ft.
Temporarly from till Visibility 2000m. Mist . Broken Clouds 500ft.
Becoming from till Wind 240º 12kt. Visibility 10km or more. Broken Clouds 3000ft.
Temporarly from till Wind 260º 12kt. Gust 21kt.

Nespracované: TAF UMGG 151700Z 1518/1618 18006MPS 9999 BKN030 TEMPO 1600/1607 2000 BR BKN005 BECMG 1607/1609 24006MPS TEMPO 1609/1614 26006G11MPS

Aktuálne satelitné snímky a snímky zrážok pre lokalitu 52.53°S 31.02°V

Značka polohy je umiestnená na52.53°S 31.02°V. [Viac]

Satelitné snímky zhotovované v reálnom čase využívajú viditeľné svetlo počas dňa a infračervené žiarenie počas noci. Vzhľadom na to, že infračervené žiarenie zisťuje teplotné rozdiely, snímka v noci nie je tmavá. Nízke oblaky a hmlu je, žiaľ, ťažké odlíšiť od prízemných teplôt, preto môžu byť počas noci takmer neviditeľné. Meteosat satelitné snímky pre Európu sú aktualizované v reálnom čase každých 5 minút. Snímky z GOES-16/GOES-17 (Severná a Južná Amerika) a Himawari (Ázia) sú aktualizované každých 10 minút.

Copyright 2021 EUMETSAT / meteoblue. / Copyright 2021 meteoblue

Radar a krátkodobá predpoveď zrážok pre 52.53°S 31.02°V

Mrholenie
Slabý
Mierne
Ťažké
Veľmi ťažké
Krúpy

Značka polohy je umiestnená na 52.53°S 31.02°V. Táto animácia ukazuje zrážky pozorované radarom za poslednú hodinu a tiež 1h predpoveď. Mrholenie alebo slabé sneženie môže byť pre radar neviditeľné. Intenzita zrážok je farebne označená od svetlomodrej po oranžovú.